Deo Volente — PHFJ — position and weather

sailwx.info

Track history (hours):
 
Tides and Currents Weather Stations Pressure Air Temp Water Temp Dewpoint Dewpoint Depression Visibility Wind Speed Wind Dir Waves Ship Positions

Deo Volente

Last reported at 2014-Jul-26 08:24 UTC. Time now 2014-Jul-28 16:29 UTC.
Position N 38°46' W 009°50'.

Length 105 m; draft 4.8 m.

Type: Cargo ship. MMSI: 246518000.

Date/timePositionNaut miles runAvg speedWind from/ knotsBaromVisibWave heightAir tempDewpointWater temp
2014-Jul-26 08:24N 38°46' W 009°50'1516.3
2014-Jul-26 07:31N 38°32' W 009°47'1816.9
2014-Jul-26 06:27N 38°14' W 009°41'1516.6
2014-Jul-26 05:33N 37°60' W 009°37'1616.1
2014-Jul-26 04:33N 37°44' W 009°32'1716.3
2014-Jul-26 03:32N 37°28' W 009°27'1616.4
2014-Jul-26 02:33N 37°12' W 009°23'1616.1
2014-Jul-26 01:33N 36°57' W 009°19'2215.2
2014-Jul-26 00:06N 36°43' W 008°58'916.2
2014-Jul-25 23:33N 36°40' W 008°47'1616.3
2014-Jul-25 22:33N 36°36' W 008°28'2016.5
2014-Jul-25 21:19N 36°30' W 008°03'1416.1
2014-Jul-25 20:25N 36°26' W 007°46'1416.1
2014-Jul-25 19:33N 36°22' W 007°29'1615.9
2014-Jul-25 18:33N 36°17' W 007°11'1616.0
2014-Jul-25 17:33N 36°12' W 006°52'3215.7
2014-Jul-25 15:32N 36°02' W 006°15'1515.3
2014-Jul-25 14:33N 35°59' W 005°56'18815.7
2014-Jul-25 02:32N 36°30' W 002°06'2117.7
2014-Jul-25 01:22N 36°44' W 001°47'1518.2
2014-Jul-25 00:33N 36°53' W 001°33'1818.0
2014-Jul-24 23:33N 37°05' W 001°16'1817.9
2014-Jul-24 22:33N 37°17' W 000°59'1817.8
2014-Jul-24 21:33N 37°29' W 000°42'1817.8
2014-Jul-24 20:33N 37°42' W 000°27'1817.6
2014-Jul-24 19:33N 37°57' W 000°16'1716.1
2014-Jul-24 18:31N 38°11' W 000°05'1615.7
2014-Jul-24 17:30N 38°24' E 000°07'6514.8
2014-Jul-24 13:05N 39°29' W 000°07'915.9
2014-Jul-24 12:33N 39°36' W 000°12'5 0.2
2014-Jul-23 12:11N 39°32' W 000°08'2815.0
2014-Jul-23 10:19N 39°08' E 000°10'1114.5
2014-Jul-23 09:32N 38°58' E 000°17'1515.0
2014-Jul-23 08:32N 38°45' E 000°26'1212.0
2014-Jul-23 07:33N 38°34' E 000°21'1414.2
2014-Jul-23 06:33N 38°22' E 000°11'1615.2
2014-Jul-23 05:29N 38°09' W 000°01'1415.0
2014-Jul-23 04:31N 37°57' W 000°11'1614.9
2014-Jul-23 03:28N 37°44' W 000°22'1314.5
2014-Jul-23 02:33N 37°33' W 000°32'1514.6
2014-Jul-23 01:33N 37°23' W 000°46'1414.4
2014-Jul-23 00:33N 37°14' W 000°59'1515.1
2014-Jul-22 23:33N 37°03' W 001°13'1313.5
2014-Jul-22 22:33N 36°54' W 001°25'3414.9
2014-Jul-22 20:16N 36°32' W 001°58'16914.4
2014-Jul-22 08:32N 35°58' W 005°23'  
Track history (hours):
 
Tides and Currents Weather Stations Pressure Air Temp Water Temp Dewpoint Dewpoint Depression Visibility Wind Speed Wind Dir Waves Ship Positions

Deo Volente

Last reported at 2014-Jul-26 08:24 UTC. Time now 2014-Jul-28 16:29 UTC.
Position N 38°46' W 009°50'.

Length 105 m; draft 4.8 m.

Type: Cargo ship. MMSI: 246518000.

Date/timePositionNaut miles runAvg speedWind from/ knotsBaromVisibWave heightAir tempDewpointWater temp
2014-Jul-26 08:24N 38°46' W 009°50'1516.3
2014-Jul-26 07:31N 38°32' W 009°47'1816.9
2014-Jul-26 06:27N 38°14' W 009°41'1516.6
2014-Jul-26 05:33N 37°60' W 009°37'1616.1
2014-Jul-26 04:33N 37°44' W 009°32'1716.3
2014-Jul-26 03:32N 37°28' W 009°27'1616.4
2014-Jul-26 02:33N 37°12' W 009°23'1616.1
2014-Jul-26 01:33N 36°57' W 009°19'2215.2
2014-Jul-26 00:06N 36°43' W 008°58'916.2
2014-Jul-25 23:33N 36°40' W 008°47'1616.3
2014-Jul-25 22:33N 36°36' W 008°28'2016.5
2014-Jul-25 21:19N 36°30' W 008°03'1416.1
2014-Jul-25 20:25N 36°26' W 007°46'1416.1
2014-Jul-25 19:33N 36°22' W 007°29'1615.9
2014-Jul-25 18:33N 36°17' W 007°11'1616.0
2014-Jul-25 17:33N 36°12' W 006°52'3215.7
2014-Jul-25 15:32N 36°02' W 006°15'1515.3
2014-Jul-25 14:33N 35°59' W 005°56'18815.7
2014-Jul-25 02:32N 36°30' W 002°06'2117.7
2014-Jul-25 01:22N 36°44' W 001°47'1518.2
2014-Jul-25 00:33N 36°53' W 001°33'1818.0
2014-Jul-24 23:33N 37°05' W 001°16'1817.9
2014-Jul-24 22:33N 37°17' W 000°59'1817.8
2014-Jul-24 21:33N 37°29' W 000°42'1817.8
2014-Jul-24 20:33N 37°42' W 000°27'1817.6
2014-Jul-24 19:33N 37°57' W 000°16'1716.1
2014-Jul-24 18:31N 38°11' W 000°05'1615.7
2014-Jul-24 17:30N 38°24' E 000°07'6514.8
2014-Jul-24 13:05N 39°29' W 000°07'915.9
2014-Jul-24 12:33N 39°36' W 000°12'5 0.2
2014-Jul-23 12:11N 39°32' W 000°08'2815.0
2014-Jul-23 10:19N 39°08' E 000°10'1114.5
2014-Jul-23 09:32N 38°58' E 000°17'1515.0
2014-Jul-23 08:32N 38°45' E 000°26'1212.0
2014-Jul-23 07:33N 38°34' E 000°21'1414.2
2014-Jul-23 06:33N 38°22' E 000°11'1615.2
2014-Jul-23 05:29N 38°09' W 000°01'1415.0
2014-Jul-23 04:31N 37°57' W 000°11'1614.9
2014-Jul-23 03:28N 37°44' W 000°22'1314.5
2014-Jul-23 02:33N 37°33' W 000°32'1514.6
2014-Jul-23 01:33N 37°23' W 000°46'1414.4
2014-Jul-23 00:33N 37°14' W 000°59'1515.1
2014-Jul-22 23:33N 37°03' W 001°13'1313.5
2014-Jul-22 22:33N 36°54' W 001°25'3414.9
2014-Jul-22 20:16N 36°32' W 001°58'16914.4
2014-Jul-22 08:32N 35°58' W 005°23'  

Dump ship's entire track history